This demonstration page uses our WeatherBlox Daily Observations layout. Learn more.

Left ArrowRight Arrow

Hourly Observations for August 1, 2020

Temp ( °F °C ) Dew Point ( °F °C ) Humidity (%) Winds ( mph kmh ) Pressure ( in mb ) Visibility ( mi km ) Precip ( " mm )
12:15 am 00:15 Cloudy 66 19 66 19 100 100 Calm 29.89 1012 7 11.26538 N/A
12:35 am 00:35 Cloudy 66 19 66 19 100 100 ENE 5 7 29.88 1012 7 11.26538 N/A
12:55 am 00:55 Cloudy 66 19 66 19 100 100 ENE 5 7 29.88 1012 10 16.0934 N/A
1:15 am 01:15 Cloudy 66 19 66 19 100 100 NE 5 7 29.88 1012 10 16.0934 N/A
1:35 am 01:35 Cloudy 66 19 66 19 100 100 NNE 5 7 29.87 1012 10 16.0934 N/A
1:55 am 01:55 Cloudy 66 19 66 19 100 100 NE 5 7 29.87 1012 10 16.0934 N/A
2:15 am 02:15 Cloudy 66 19 66 19 100 100 NE 5 7 29.86 1011 10 16.0934 N/A
2:35 am 02:35 Cloudy 66 19 66 19 100 100 NE 6 9 29.86 1011 10 16.0934 N/A
2:55 am 02:55 Cloudy 66 19 66 19 100 100 NE 6 9 29.86 1011 10 16.0934 N/A
3:15 am 03:15 Cloudy 66 19 66 19 100 100 NNE 6 9 29.85 1011 10 16.0934 N/A
3:35 am 03:35 Cloudy 66 19 66 19 100 100 NNE 6 9 29.84 1011 10 16.0934 N/A
3:55 am 03:55 Cloudy 64 18 64 18 100 100 NNE 5 7 29.84 1011 10 16.0934 N/A
4:15 am 04:15 Cloudy 64 18 64 18 100 100 NE 5 7 29.84 1011 10 16.0934 N/A
4:35 am 04:35 Cloudy 64 18 64 18 100 100 ENE 3 6 29.85 1011 10 16.0934 N/A
4:55 am 04:55 Cloudy 64 18 64 18 100 100 NE 3 6 29.84 1011 4 6.43736 N/A
5:15 am 05:15 Cloudy 64 18 64 18 100 100 NE 5 7 29.84 1011 5 8.0467 N/A
5:35 am 05:35 Cloudy 64 18 64 18 100 100 NE 5 7 29.84 1011 7 11.26538 N/A
5:55 am 05:55 Cloudy 64 18 64 18 100 100 NE 6 9 29.84 1011 10 16.0934 N/A
6:15 am 06:15 Cloudy 64 18 64 18 100 100 NE 6 9 29.85 1011 7 11.26538 N/A
6:35 am 06:35 Cloudy 64 18 64 18 100 100 N 6 9 29.85 1011 2.5 4.02335 N/A
6:55 am 06:55 Cloudy 64 18 64 18 100 100 NNE 8 13 29.85 1011 5 8.0467 N/A
7:15 am 07:15 Cloudy 64 18 64 18 100 100 NNE 7 11 29.85 1011 5 8.0467 N/A
7:35 am 07:35 Cloudy 64 18 64 18 100 100 NNE 9 15 29.84 1011 7 11.26538 N/A
7:55 am 07:55 Cloudy 64 18 64 18 100 100 N 9 15 29.85 1011 10 16.0934 N/A
8:15 am 08:15 Cloudy 64 18 64 18 100 100 N 8 13 29.85 1011 10 16.0934 N/A
8:35 am 08:35 Cloudy 64 18 64 18 100 100 N 7 11 29.85 1011 10 16.0934 N/A
8:55 am 08:55 Cloudy 64 18 64 18 100 100 N 8 13 29.85 1011 7 11.26538 N/A
9:15 am 09:15 Cloudy 64 18 64 18 100 100 N 8 13 29.85 1011 4 6.43736 N/A
9:35 am 09:35 Cloudy 64 18 64 18 100 100 N 8 13 29.85 1011 7 11.26538 N/A
9:55 am 09:55 Cloudy 64 18 64 18 100 100 N 9 15 29.85 1011 10 16.0934 N/A
10:15 am 10:15 Cloudy 66 19 66 19 100 100 NNE 8 13 29.85 1011 10 16.0934 N/A
10:35 am 10:35 Cloudy 66 19 66 19 100 100 N 8 13 29.85 1011 10 16.0934 N/A
10:55 am 10:55 Cloudy 68 20 68 20 100 100 NNE 9 15 29.84 1010 10 16.0934 N/A
11:15 am 11:15 Cloudy 68 20 68 20 100 100 NNE 7 11 29.84 1010 10 16.0934 N/A
11:35 am 11:35 Cloudy 68 20 68 20 100 100 NNE 3 6 29.84 1010 10 16.0934 N/A
11:55 am 11:55 Cloudy 70 21 70 21 100 100 NNE 8 13 29.84 1010 10 16.0934 N/A
12:15 pm 12:15 Cloudy 70 21 70 21 100 100 NE 6 9 29.84 1010 10 16.0934 N/A
12:35 pm 12:35 Cloudy 70 21 70 21 100 100 NE 6 9 29.84 1010 10 16.0934 N/A
12:55 pm 12:55 Cloudy 70 21 70 21 100 100 NNE 6 9 29.83 1010 7 11.26538 N/A
1:15 pm 13:15 Cloudy 70 21 70 21 100 100 NNE 7 11 29.82 1010 4 6.43736 N/A
1:35 pm 13:35 Cloudy 72 22 72 22 100 100 NNE 7 11 29.81 1010 10 16.0934 N/A
1:55 pm 13:55 Cloudy 72 22 72 22 100 100 NE 5 7 29.8 1009 10 16.0934 N/A
2:15 pm 14:15 Cloudy 73 23 73 23 100 100 NNE 7 11 29.79 1009 10 16.0934 N/A
2:35 pm 14:35 Cloudy 73 23 73 23 100 100 NNE 6 9 29.79 1009 10 16.0934 N/A
2:55 pm 14:55 Cloudy 73 23 73 23 100 100 NNE 5 7 29.78 1008 10 16.0934 N/A
3:15 pm 15:15 Cloudy 73 23 73 23 100 100 NNE 5 7 29.78 1008 10 16.0934 N/A
3:35 pm 15:35 Cloudy 73 23 73 23 100 100 N 6 9 29.77 1008 10 16.0934 N/A
3:55 pm 15:55 Cloudy 75 24 75 24 100 100 NNE 6 9 29.77 1008 10 16.0934 N/A
4:15 pm 16:15 Cloudy 73 23 73 23 100 100 N 6 9 29.77 1008 10 16.0934 N/A
4:35 pm 16:35 Cloudy 75 24 75 24 100 100 NNE 6 9 29.76 1008 10 16.0934 N/A
4:55 pm 16:55 Cloudy 75 24 75 24 100 100 N 8 13 29.76 1008 10 16.0934 N/A
5:15 pm 17:15 Cloudy 73 23 73 23 100 100 N 7 11 29.76 1008 10 16.0934 N/A
5:35 pm 17:35 Cloudy 75 24 75 24 100 100 NNW 6 9 29.75 1007 10 16.0934 N/A
5:55 pm 17:55 Cloudy 75 24 75 24 100 100 NNW 8 13 29.75 1007 10 16.0934 N/A
6:15 pm 18:15 Cloudy 73 23 73 23 100 100 NNW 7 11 29.76 1008 10 16.0934 N/A
6:35 pm 18:35 Cloudy 73 23 73 23 100 100 NNW 6 9 29.76 1008 10 16.0934 N/A
6:55 pm 18:55 Cloudy 73 23 73 23 100 100 N 7 11 29.76 1008 10 16.0934 N/A
7:15 pm 19:15 Cloudy 72 22 72 22 100 100 Calm 29.75 1008 2 3.21868 N/A
7:35 pm 19:35 Cloudy 72 22 72 22 100 100 Calm 29.76 1008 7 11.26538 N/A
7:55 pm 19:55 Cloudy 70 21 70 21 100 100 Calm 29.77 1008 10 16.0934 N/A
8:15 pm 20:15 Mostly Cloudy 70 21 70 21 100 100 N 3 6 29.76 1008 7 11.26538 N/A
8:35 pm 20:35 Mostly Cloudy 70 21 70 21 100 100 Calm 29.76 1008 4 6.43736 N/A
8:55 pm 20:55 Cloudy 70 21 70 21 100 100 NNW 5 7 29.77 1008 4 6.43736 N/A
9:15 pm 21:15 Cloudy 70 21 70 21 100 100 NNW 5 7 29.77 1008 5 8.0467 N/A
9:35 pm 21:35 Cloudy 70 21 70 21 100 100 NNW 6 9 29.77 1008 7 11.26538 N/A
9:55 pm 21:55 Cloudy 70 21 70 21 100 100 NNW 5 7 29.77 1008 7 11.26538 N/A
10:15 pm 22:15 Mostly Cloudy 68 20 68 20 100 100 N 6 9 29.77 1008 5 8.0467 N/A
10:35 pm 22:35 Cloudy 68 20 68 20 100 100 NW 3 6 29.77 1008 5 8.0467 N/A
10:55 pm 22:55 Cloudy 70 21 70 21 100 100 NNW 3 6 29.78 1008 7 11.26538 N/A
11:15 pm 23:15 Cloudy 68 20 68 20 100 100 NW 3 6 29.78 1008 5 8.0467 N/A
11:35 pm 23:35 Cloudy 68 20 68 20 100 100 WNW 3 6 29.78 1008 5 8.0467 N/A
11:55 pm 23:55 Cloudy 68 20 68 20 100 100 W 5 7 29.78 1008 7 11.26538 N/A

Powered by AerisWeather